PSCTB SNSG-SNRU

Flight info

Callsign PSCTB
Flight time 1h 14m
Altitude 7500
Route 0807S03851W 0810S03831W 0815S03752W 0824S03705W 0822S03622W
Aircraft C208/L-SDFGR/C

Departure

Time 2026-04-18 20:21
Airport Salgueiro Airport (SNSG)

Arrival

Time 2026-04-18 21:36
Airport Caruaru Airport (SNRU)
Time Latitude Longitude Altitude Speed Heading
2026-04-18 20:13 -8.04496 -39.13572 1548 ft 0 kts 143°
2026-04-18 20:18 -8.04498 -39.13570 1548 ft 3 kts 142°
2026-04-18 20:19 -8.04516 -39.13552 1548 ft 4 kts 123°
2026-04-18 20:19 -8.04520 -39.13530 1548 ft 2 kts 73°
2026-04-18 20:19 -8.04505 -39.13509 1544 ft 6 kts 49°
2026-04-18 20:19 -8.04462 -39.13495 1548 ft 10 kts 323°
2026-04-18 20:20 -8.04395 -39.13552 1546 ft 12 kts 318°
2026-04-18 20:20 -8.04363 -39.13572 1546 ft 4 kts 91°
2026-04-18 20:20 -8.04416 -39.13529 1544 ft 21 kts 140°
2026-04-18 20:20 -8.04656 -39.13348 1549 ft 64 kts 143°
2026-04-18 20:21 -8.05112 -39.13022 1599 ft 90 kts 147°
2026-04-18 20:21 -8.05533 -39.12588 1840 ft 86 kts 114°
2026-04-18 20:21 -8.05470 -39.12013 2062 ft 86 kts 71°
2026-04-18 20:21 -8.05539 -39.11458 2295 ft 80 kts 105°
2026-04-18 20:22 -8.05636 -39.10918 2528 ft 77 kts 106°
2026-04-18 20:22 -8.05758 -39.10347 2675 ft 93 kts 102°
2026-04-18 20:22 -8.05902 -39.09658 2841 ft 107 kts 104°
2026-04-18 20:22 -8.06086 -39.08889 3017 ft 119 kts 104°
2026-04-18 20:23 -8.06274 -39.08053 3194 ft 125 kts 104°
2026-04-18 20:23 -8.06476 -39.07183 3366 ft 129 kts 103°
2026-04-18 20:23 -8.06687 -39.06284 3533 ft 134 kts 104°
2026-04-18 20:23 -8.06905 -39.05354 3693 ft 137 kts 104°
2026-04-18 20:24 -8.07123 -39.04412 3849 ft 139 kts 104°
2026-04-18 20:24 -8.07350 -39.03457 4005 ft 140 kts 104°
2026-04-18 20:24 -8.07576 -39.02498 4157 ft 140 kts 104°
2026-04-18 20:24 -8.07783 -39.01609 4300 ft 140 kts 104°
2026-04-18 20:25 -8.08009 -39.00644 4453 ft 143 kts 104°
2026-04-18 20:25 -8.08236 -38.99669 4601 ft 142 kts 104°
2026-04-18 20:25 -8.08459 -38.98710 4754 ft 143 kts 104°
2026-04-18 20:25 -8.08685 -38.97753 4899 ft 144 kts 104°
2026-04-18 20:26 -8.08919 -38.96756 5054 ft 148 kts 104°
2026-04-18 20:26 -8.09153 -38.95749 5209 ft 147 kts 104°
2026-04-18 20:26 -8.09388 -38.94739 5355 ft 147 kts 104°
2026-04-18 20:26 -8.09623 -38.93741 5506 ft 146 kts 104°
2026-04-18 20:27 -8.09858 -38.92741 5661 ft 148 kts 104°
2026-04-18 20:27 -8.10095 -38.91726 5810 ft 149 kts 104°
2026-04-18 20:27 -8.10330 -38.90715 5949 ft 147 kts 104°
2026-04-18 20:27 -8.10568 -38.89706 6108 ft 148 kts 104°
2026-04-18 20:28 -8.10805 -38.88694 6259 ft 148 kts 104°
2026-04-18 20:28 -8.11037 -38.87692 6406 ft 148 kts 103°
2026-04-18 20:28 -8.11272 -38.86685 6557 ft 148 kts 104°
2026-04-18 20:28 -8.11507 -38.85677 6706 ft 149 kts 104°
2026-04-18 20:29 -8.11723 -38.84656 6855 ft 148 kts 98°
2026-04-18 20:29 -8.11866 -38.83631 7001 ft 147 kts 99°
2026-04-18 20:29 -8.12021 -38.82613 7151 ft 147 kts 99°
2026-04-18 20:29 -8.12167 -38.81656 7292 ft 147 kts 99°
2026-04-18 20:30 -8.12323 -38.80632 7442 ft 147 kts 99°
2026-04-18 20:30 -8.12481 -38.79600 7509 ft 152 kts 99°
2026-04-18 20:30 -8.12643 -38.78516 7514 ft 160 kts 99°
2026-04-18 20:30 -8.12809 -38.77409 7512 ft 163 kts 99°
2026-04-18 20:31 -8.12979 -38.76254 7520 ft 166 kts 99°
2026-04-18 20:31 -8.13154 -38.75095 7517 ft 168 kts 99°
2026-04-18 20:31 -8.13331 -38.73933 7519 ft 170 kts 99°
2026-04-18 20:31 -8.13509 -38.72747 7518 ft 171 kts 99°
2026-04-18 20:32 -8.13686 -38.71561 7520 ft 171 kts 99°
2026-04-18 20:32 -8.13864 -38.70375 7518 ft 171 kts 99°
2026-04-18 20:32 -8.14043 -38.69184 7521 ft 172 kts 99°
2026-04-18 20:32 -8.14222 -38.67989 7517 ft 172 kts 99°
2026-04-18 20:33 -8.14401 -38.66795 7511 ft 172 kts 99°
2026-04-18 20:33 -8.14580 -38.65608 7517 ft 170 kts 99°
2026-04-18 20:33 -8.14755 -38.64426 7512 ft 170 kts 99°
2026-04-18 20:33 -8.14933 -38.63243 7517 ft 171 kts 99°
2026-04-18 20:34 -8.15111 -38.62062 7515 ft 170 kts 100°
2026-04-18 20:34 -8.15291 -38.60879 7504 ft 171 kts 99°
2026-04-18 20:34 -8.15466 -38.59687 7510 ft 172 kts 99°
2026-04-18 20:34 -8.15644 -38.58503 7519 ft 173 kts 99°
2026-04-18 20:35 -8.15823 -38.57300 7511 ft 174 kts 99°
2026-04-18 20:35 -8.16003 -38.56095 7514 ft 174 kts 99°
2026-04-18 20:35 -8.16187 -38.54884 7516 ft 174 kts 99°
2026-04-18 20:35 -8.16365 -38.53691 7518 ft 173 kts 99°
2026-04-18 20:36 -8.16542 -38.52500 7516 ft 172 kts 99°
2026-04-18 20:36 -8.16706 -38.51310 7511 ft 171 kts 97°
2026-04-18 20:36 -8.16849 -38.50117 7512 ft 171 kts 99°
2026-04-18 20:36 -8.17018 -38.48924 7517 ft 172 kts 98°
2026-04-18 20:37 -8.17173 -38.47725 7517 ft 173 kts 98°
2026-04-18 20:37 -8.17330 -38.46525 7502 ft 172 kts 98°
2026-04-18 20:37 -8.17484 -38.45330 7513 ft 171 kts 98°
2026-04-18 20:37 -8.17637 -38.44156 7514 ft 171 kts 98°
2026-04-18 20:38 -8.17789 -38.42961 7505 ft 171 kts 98°
2026-04-18 20:38 -8.17941 -38.41771 7515 ft 171 kts 98°
2026-04-18 20:38 -8.18095 -38.40583 7513 ft 171 kts 98°
2026-04-18 20:38 -8.18250 -38.39395 7516 ft 171 kts 98°
2026-04-18 20:39 -8.18404 -38.38197 7516 ft 172 kts 98°
2026-04-18 20:39 -8.18557 -38.37004 7510 ft 172 kts 98°
2026-04-18 20:39 -8.18710 -38.35806 7518 ft 171 kts 98°
2026-04-18 20:39 -8.18861 -38.34614 7517 ft 172 kts 98°
2026-04-18 20:40 -8.19020 -38.33411 7513 ft 173 kts 98°
2026-04-18 20:40 -8.19171 -38.32204 7514 ft 173 kts 98°
2026-04-18 20:40 -8.19330 -38.30995 7513 ft 174 kts 98°
2026-04-18 20:40 -8.19486 -38.29785 7521 ft 174 kts 98°
2026-04-18 20:41 -8.19638 -38.28576 7520 ft 174 kts 98°
2026-04-18 20:41 -8.19795 -38.27367 7522 ft 174 kts 98°
2026-04-18 20:41 -8.19951 -38.26154 7522 ft 174 kts 98°
2026-04-18 20:41 -8.20104 -38.24937 7512 ft 175 kts 98°
2026-04-18 20:42 -8.20262 -38.23719 7508 ft 174 kts 98°
2026-04-18 20:42 -8.20419 -38.22509 7512 ft 173 kts 98°
2026-04-18 20:42 -8.20575 -38.21303 7520 ft 173 kts 98°
2026-04-18 20:42 -8.20730 -38.20091 7516 ft 175 kts 98°
2026-04-18 20:43 -8.20881 -38.18891 7512 ft 175 kts 98°
2026-04-18 20:43 -8.21038 -38.17680 7514 ft 173 kts 98°
2026-04-18 20:43 -8.21192 -38.16478 7513 ft 172 kts 98°
2026-04-18 20:43 -8.21344 -38.15280 7509 ft 172 kts 98°
2026-04-18 20:44 -8.21498 -38.14079 7507 ft 172 kts 98°
2026-04-18 20:44 -8.21654 -38.12880 7508 ft 172 kts 98°
2026-04-18 20:44 -8.21808 -38.11684 7504 ft 172 kts 98°
2026-04-18 20:44 -8.21956 -38.10499 7507 ft 171 kts 98°
2026-04-18 20:45 -8.22107 -38.09308 7503 ft 172 kts 98°
2026-04-18 20:45 -8.22263 -38.08113 7501 ft 171 kts 98°
2026-04-18 20:45 -8.22418 -38.06920 7508 ft 172 kts 98°
2026-04-18 20:45 -8.22567 -38.05722 7506 ft 172 kts 98°
2026-04-18 20:46 -8.22721 -38.04528 7506 ft 171 kts 98°
2026-04-18 20:46 -8.22875 -38.03333 7507 ft 172 kts 98°
2026-04-18 20:46 -8.23027 -38.02141 7502 ft 171 kts 98°
2026-04-18 20:46 -8.23178 -38.00967 7502 ft 171 kts 98°
2026-04-18 20:47 -8.23329 -37.99773 7498 ft 171 kts 98°
2026-04-18 20:47 -8.23482 -37.98581 7507 ft 172 kts 98°
2026-04-18 20:47 -8.23634 -37.97388 7506 ft 171 kts 98°
2026-04-18 20:47 -8.23785 -37.96198 7498 ft 171 kts 98°
2026-04-18 20:48 -8.23937 -37.95008 7506 ft 171 kts 98°
2026-04-18 20:48 -8.24089 -37.93814 7506 ft 172 kts 98°
2026-04-18 20:48 -8.24242 -37.92619 7505 ft 171 kts 98°
2026-04-18 20:48 -8.24393 -37.91427 7498 ft 171 kts 98°
2026-04-18 20:49 -8.24545 -37.90235 7507 ft 171 kts 98°
2026-04-18 20:49 -8.24698 -37.89048 7502 ft 170 kts 98°
2026-04-18 20:49 -8.24847 -37.87865 7506 ft 169 kts 98°
2026-04-18 20:49 -8.25000 -37.86683 7507 ft 170 kts 99°
2026-04-18 20:50 -8.25233 -37.85506 7502 ft 171 kts 102°
2026-04-18 20:50 -8.25457 -37.84329 7503 ft 171 kts 102°
2026-04-18 20:50 -8.25680 -37.83152 7507 ft 170 kts 102°
2026-04-18 20:50 -8.25828 -37.82372 7508 ft 171 kts 102°
2026-04-18 20:51 -8.26054 -37.81192 7505 ft 171 kts 102°
2026-04-18 20:51 -8.26357 -37.79619 7508 ft 170 kts 102°
2026-04-18 20:51 -8.26506 -37.78843 7507 ft 170 kts 102°
2026-04-18 20:51 -8.26798 -37.77322 7505 ft 170 kts 102°
2026-04-18 20:52 -8.26948 -37.76544 7515 ft 170 kts 102°
2026-04-18 20:52 -8.27175 -37.75372 7509 ft 170 kts 102°
2026-04-18 20:52 -8.27398 -37.74199 7515 ft 170 kts 102°
2026-04-18 20:52 -8.27621 -37.73024 7509 ft 170 kts 102°
2026-04-18 20:53 -8.27848 -37.71850 7514 ft 171 kts 102°
2026-04-18 20:53 -8.28076 -37.70677 7517 ft 171 kts 102°
2026-04-18 20:53 -8.28304 -37.69488 7513 ft 172 kts 102°
2026-04-18 20:53 -8.28533 -37.68302 7516 ft 172 kts 102°
2026-04-18 20:54 -8.28759 -37.67115 7513 ft 172 kts 102°
2026-04-18 20:54 -8.28988 -37.65930 7518 ft 172 kts 102°
2026-04-18 20:54 -8.29214 -37.64744 7510 ft 172 kts 102°
2026-04-18 20:54 -8.29444 -37.63558 7511 ft 172 kts 102°
2026-04-18 20:55 -8.29672 -37.62371 7514 ft 172 kts 102°
2026-04-18 20:55 -8.29899 -37.61183 7520 ft 172 kts 102°
2026-04-18 20:55 -8.30125 -37.59992 7507 ft 172 kts 102°
2026-04-18 20:55 -8.30351 -37.58815 7518 ft 170 kts 102°
2026-04-18 20:56 -8.30580 -37.57638 7517 ft 171 kts 102°
2026-04-18 20:56 -8.30799 -37.56476 7514 ft 170 kts 102°
2026-04-18 20:56 -8.31028 -37.55299 7519 ft 172 kts 102°
2026-04-18 20:56 -8.31255 -37.54111 7515 ft 172 kts 102°
2026-04-18 20:57 -8.31483 -37.52918 7507 ft 173 kts 102°
2026-04-18 20:57 -8.31712 -37.51724 7518 ft 173 kts 102°
2026-04-18 20:57 -8.31939 -37.50538 7516 ft 171 kts 102°
2026-04-18 20:57 -8.32165 -37.49362 7517 ft 171 kts 102°
2026-04-18 20:58 -8.32389 -37.48184 7517 ft 171 kts 102°
2026-04-18 20:58 -8.32616 -37.47001 7508 ft 172 kts 102°
2026-04-18 20:58 -8.32843 -37.45817 7505 ft 172 kts 102°
2026-04-18 20:58 -8.33070 -37.44635 7514 ft 171 kts 102°
2026-04-18 20:59 -8.33297 -37.43451 7517 ft 171 kts 102°
2026-04-18 20:59 -8.33523 -37.42272 7512 ft 171 kts 102°
2026-04-18 20:59 -8.33745 -37.41092 7518 ft 172 kts 102°
2026-04-18 20:59 -8.33972 -37.39910 7518 ft 171 kts 102°
2026-04-18 21:00 -8.34199 -37.38731 7518 ft 171 kts 102°
2026-04-18 21:00 -8.34426 -37.37552 7519 ft 171 kts 102°
2026-04-18 21:00 -8.34649 -37.36374 7516 ft 170 kts 102°
2026-04-18 21:00 -8.34872 -37.35215 7510 ft 171 kts 102°
2026-04-18 21:01 -8.35099 -37.34022 7514 ft 171 kts 102°
2026-04-18 21:01 -8.35320 -37.32861 7511 ft 171 kts 102°
2026-04-18 21:01 -8.35547 -37.31683 7520 ft 171 kts 102°
2026-04-18 21:01 -8.35768 -37.30527 7518 ft 171 kts 102°
2026-04-18 21:02 -8.35993 -37.29349 7512 ft 171 kts 102°
2026-04-18 21:02 -8.36442 -37.26990 7516 ft 170 kts 102°
2026-04-18 21:02 -8.36668 -37.25812 7513 ft 171 kts 102°
2026-04-18 21:03 -8.36893 -37.24634 7525 ft 171 kts 102°
2026-04-18 21:03 -8.37120 -37.23453 7525 ft 171 kts 102°
2026-04-18 21:03 -8.37343 -37.22270 7523 ft 171 kts 102°
2026-04-18 21:03 -8.37569 -37.21089 7524 ft 171 kts 102°
2026-04-18 21:04 -8.37792 -37.19910 7527 ft 170 kts 102°
2026-04-18 21:04 -8.38018 -37.18739 7509 ft 170 kts 102°
2026-04-18 21:04 -8.38242 -37.17571 7528 ft 170 kts 102°
2026-04-18 21:04 -8.38465 -37.16396 7522 ft 171 kts 102°
2026-04-18 21:05 -8.38690 -37.15208 7521 ft 172 kts 102°
2026-04-18 21:05 -8.38917 -37.14018 7528 ft 173 kts 102°
2026-04-18 21:05 -8.39142 -37.12845 7528 ft 172 kts 102°
2026-04-18 21:05 -8.39367 -37.11656 7521 ft 172 kts 102°
2026-04-18 21:06 -8.39593 -37.10473 7528 ft 171 kts 102°
2026-04-18 21:06 -8.39818 -37.09293 7530 ft 171 kts 102°
2026-04-18 21:06 -8.40002 -37.08105 7528 ft 171 kts 92°
2026-04-18 21:06 -8.39934 -37.06900 7530 ft 172 kts 88°
2026-04-18 21:07 -8.39874 -37.05694 7531 ft 172 kts 89°
2026-04-18 21:07 -8.39822 -37.04484 7529 ft 173 kts 89°
2026-04-18 21:07 -8.39769 -37.03273 7520 ft 172 kts 89°
2026-04-18 21:07 -8.39715 -37.02063 7530 ft 173 kts 89°
2026-04-18 21:08 -8.39658 -37.00856 7530 ft 173 kts 89°
2026-04-18 21:08 -8.39600 -36.99644 7531 ft 173 kts 89°
2026-04-18 21:08 -8.39548 -36.98429 7515 ft 173 kts 89°
2026-04-18 21:08 -8.39492 -36.97225 7532 ft 174 kts 89°
2026-04-18 21:09 -8.39436 -36.96009 7532 ft 173 kts 89°
2026-04-18 21:09 -8.39380 -36.94802 7520 ft 171 kts 89°
2026-04-18 21:09 -8.39324 -36.93603 7531 ft 170 kts 89°
2026-04-18 21:09 -8.39271 -36.92406 7527 ft 171 kts 89°
2026-04-18 21:10 -8.39216 -36.91204 7535 ft 171 kts 89°
2026-04-18 21:10 -8.39160 -36.90008 7536 ft 171 kts 89°
2026-04-18 21:10 -8.39105 -36.88810 7537 ft 171 kts 89°
2026-04-18 21:10 -8.39047 -36.87605 7538 ft 172 kts 89°
2026-04-18 21:11 -8.38991 -36.86398 7539 ft 172 kts 89°
2026-04-18 21:11 -8.38937 -36.85185 7540 ft 171 kts 89°
2026-04-18 21:11 -8.38884 -36.83981 7540 ft 172 kts 88°
2026-04-18 21:11 -8.38824 -36.82766 7540 ft 174 kts 89°
2026-04-18 21:12 -8.38770 -36.81547 7540 ft 173 kts 89°
2026-04-18 21:12 -8.38713 -36.80355 7538 ft 171 kts 89°
2026-04-18 21:12 -8.38658 -36.79138 7536 ft 171 kts 89°
2026-04-18 21:12 -8.38603 -36.77940 7537 ft 171 kts 89°
2026-04-18 21:13 -8.38550 -36.76765 7534 ft 169 kts 89°
2026-04-18 21:13 -8.38493 -36.75574 7535 ft 170 kts 89°
2026-04-18 21:13 -8.38438 -36.74385 7534 ft 168 kts 89°
2026-04-18 21:13 -8.38388 -36.73265 7535 ft 168 kts 89°
2026-04-18 21:14 -8.38331 -36.72072 7537 ft 171 kts 89°
2026-04-18 21:14 -8.38274 -36.70879 7536 ft 169 kts 89°
2026-04-18 21:14 -8.38215 -36.69691 7533 ft 169 kts 88°
2026-04-18 21:14 -8.38162 -36.68530 7533 ft 169 kts 89°
2026-04-18 21:15 -8.38109 -36.67339 7535 ft 169 kts 89°
2026-04-18 21:15 -8.38052 -36.66143 7537 ft 171 kts 89°
2026-04-18 21:15 -8.37992 -36.64942 7536 ft 171 kts 89°
2026-04-18 21:15 -8.37939 -36.63755 7537 ft 172 kts 89°
2026-04-18 21:16 -8.37885 -36.62553 7536 ft 171 kts 89°
2026-04-18 21:16 -8.37830 -36.61347 7537 ft 172 kts 89°
2026-04-18 21:16 -8.37769 -36.60146 7537 ft 171 kts 88°
2026-04-18 21:16 -8.37717 -36.58969 7537 ft 170 kts 89°
2026-04-18 21:17 -8.37660 -36.57771 7537 ft 172 kts 89°
2026-04-18 21:17 -8.37602 -36.56560 7537 ft 172 kts 89°
2026-04-18 21:17 -8.37548 -36.55354 7539 ft 172 kts 89°
2026-04-18 21:17 -8.37491 -36.54149 7538 ft 171 kts 89°
2026-04-18 21:18 -8.37435 -36.52948 7537 ft 171 kts 89°
2026-04-18 21:18 -8.37380 -36.51768 7536 ft 169 kts 89°
2026-04-18 21:18 -8.37324 -36.50581 7540 ft 169 kts 89°
2026-04-18 21:18 -8.37272 -36.49469 7541 ft 170 kts 89°
2026-04-18 21:19 -8.37214 -36.48247 7540 ft 170 kts 89°
2026-04-18 21:19 -8.37160 -36.47054 7543 ft 171 kts 89°
2026-04-18 21:19 -8.37101 -36.45846 7545 ft 171 kts 89°
2026-04-18 21:19 -8.37039 -36.44656 7542 ft 170 kts 88°
2026-04-18 21:20 -8.36987 -36.43460 7545 ft 172 kts 90°
2026-04-18 21:20 -8.36937 -36.42249 7545 ft 173 kts 89°
2026-04-18 21:20 -8.36874 -36.41039 7544 ft 172 kts 89°
2026-04-18 21:20 -8.36816 -36.39837 7543 ft 171 kts 89°
2026-04-18 21:21 -8.36761 -36.38657 7542 ft 170 kts 89°
2026-04-18 21:21 -8.36704 -36.37461 7541 ft 170 kts 89°
2026-04-18 21:21 -8.36594 -36.36275 7542 ft 171 kts 80°
2026-04-18 21:21 -8.36309 -36.35109 7542 ft 171 kts 78°
2026-04-18 21:22 -8.36033 -36.33939 7542 ft 170 kts 79°
2026-04-18 21:22 -8.35764 -36.32774 7543 ft 171 kts 79°
2026-04-18 21:22 -8.35497 -36.31605 7545 ft 171 kts 79°
2026-04-18 21:22 -8.35229 -36.30432 7545 ft 172 kts 79°
2026-04-18 21:23 -8.34958 -36.29257 7546 ft 172 kts 79°
2026-04-18 21:23 -8.34686 -36.28084 7546 ft 172 kts 79°
2026-04-18 21:23 -8.34415 -36.26909 7544 ft 172 kts 79°
2026-04-18 21:23 -8.34159 -36.25802 7544 ft 172 kts 79°
2026-04-18 21:24 -8.33881 -36.24597 7545 ft 172 kts 79°
2026-04-18 21:24 -8.33609 -36.23418 7545 ft 173 kts 79°
2026-04-18 21:24 -8.33336 -36.22235 7545 ft 173 kts 79°
2026-04-18 21:24 -8.33063 -36.21053 7545 ft 173 kts 79°
2026-04-18 21:25 -8.32790 -36.19871 7545 ft 172 kts 79°
2026-04-18 21:25 -8.32518 -36.18694 7544 ft 172 kts 79°
2026-04-18 21:25 -8.32245 -36.17517 7524 ft 173 kts 79°
2026-04-18 21:25 -8.31963 -36.16308 7284 ft 178 kts 79°
2026-04-18 21:26 -8.31681 -36.15108 7028 ft 175 kts 79°
2026-04-18 21:26 -8.31408 -36.13916 6773 ft 174 kts 80°
2026-04-18 21:26 -8.31137 -36.12733 6526 ft 172 kts 80°
2026-04-18 21:26 -8.30867 -36.11555 6274 ft 172 kts 80°
2026-04-18 21:27 -8.30595 -36.10382 6025 ft 171 kts 80°
2026-04-18 21:27 -8.30325 -36.09210 5777 ft 171 kts 80°
2026-04-18 21:27 -8.30054 -36.08039 5527 ft 171 kts 79°
2026-04-18 21:27 -8.29782 -36.06867 5278 ft 172 kts 79°
2026-04-18 21:28 -8.29515 -36.05712 5031 ft 171 kts 80°
2026-04-18 21:28 -8.29247 -36.04545 4781 ft 170 kts 80°
2026-04-18 21:28 -8.28977 -36.03385 4530 ft 169 kts 80°
2026-04-18 21:28 -8.28711 -36.02236 4285 ft 167 kts 80°
2026-04-18 21:29 -8.28500 -36.01085 4028 ft 165 kts 92°
2026-04-18 21:29 -8.28719 -35.99963 3779 ft 163 kts 107°
2026-04-18 21:29 -8.29003 -35.98847 3529 ft 163 kts 105°
2026-04-18 21:29 -8.29269 -35.97740 3281 ft 161 kts 105°
2026-04-18 21:30 -8.29540 -35.96643 3030 ft 161 kts 105°
2026-04-18 21:30 -8.29810 -35.95536 2776 ft 164 kts 104°
2026-04-18 21:30 -8.30085 -35.94419 2649 ft 161 kts 104°
2026-04-18 21:30 -8.30344 -35.93373 2644 ft 154 kts 104°
2026-04-18 21:31 -8.30587 -35.92333 2639 ft 151 kts 99°
2026-04-18 21:31 -8.30366 -35.91364 2636 ft 137 kts 55°
2026-04-18 21:31 -8.29657 -35.90814 2635 ft 126 kts 21°
2026-04-18 21:31 -8.28804 -35.90778 2635 ft 124 kts 346°
2026-04-18 21:32 -8.28091 -35.91234 2638 ft 122 kts 309°
2026-04-18 21:32 -8.27763 -35.91992 2637 ft 120 kts 274°
2026-04-18 21:32 -8.27900 -35.92800 2641 ft 116 kts 240°
2026-04-18 21:32 -8.28320 -35.93494 2642 ft 116 kts 237°
2026-04-18 21:33 -8.28727 -35.94195 2642 ft 115 kts 237°
2026-04-18 21:33 -8.29140 -35.94892 2642 ft 115 kts 237°
2026-04-18 21:33 -8.29525 -35.95597 2634 ft 114 kts 249°
2026-04-18 21:33 -8.29547 -35.96375 2642 ft 107 kts 284°
2026-04-18 21:34 -8.29343 -35.97080 2533 ft 104 kts 283°
2026-04-18 21:34 -8.29174 -35.97806 2373 ft 108 kts 283°
2026-04-18 21:34 -8.29001 -35.98498 2260 ft 98 kts 284°
2026-04-18 21:34 -8.28827 -35.99112 2129 ft 87 kts 285°
2026-04-18 21:35 -8.28680 -35.99682 1988 ft 82 kts 284°
2026-04-18 21:35 -8.28535 -36.00221 1887 ft 76 kts 284°
2026-04-18 21:35 -8.28405 -36.00712 1825 ft 67 kts 284°
2026-04-18 21:35 -8.28299 -36.01124 1822 ft 56 kts 284°
2026-04-18 21:36 -8.28225 -36.01395 1822 ft 26 kts 283°
2026-04-18 21:36 -8.28205 -36.01521 1823 ft 11 kts 298°
2026-04-18 21:36 -8.28214 -36.01440 1822 ft 19 kts 105°
2026-04-18 21:36 -8.28280 -36.01304 1822 ft 24 kts 121°
2026-04-18 21:37 -8.28356 -36.01178 1822 ft 18 kts 122°
2026-04-18 21:37 -8.28403 -36.01088 1822 ft 11 kts 124°
2026-04-18 21:37 -8.28440 -36.01079 1822 ft 0 kts 197°
2026-04-18 21:37 -8.28441 -36.01079 1822 ft 0 kts 197°